Location: Campo Claro
(10.4907°N, 66.8285°W)
Time: 06:02:24
(UTC+00:00)

Cosmos 1553 Rocket - Pass Details

Date: 05 July 2022
Orbit: 941 x 1008 km, 82.9° (Epoch: 12 August)

Event Time Altitude Azimuth Distance (km) Brightness Sun altitude
Rises 00:43:54 0° 218° (SW) 3,682 7.1 -25.0°
Reaches altitude 10° 00:47:18 10° 236° (SW) 2,746 6.6 -25.7°
Maximum altitude 00:51:21 18° 277° (W) 2,236 6.6 -26.6°
Drops below altitude 10° 00:55:27 10° 317° (NW) 2,768 7.3 -27.4°
Sets 00:58:56 0° 336° (NNW) 3,724 7.9 -28.2°
